Погода в Карамае

Китай     45°33′39″N   84°53′31″E
темп.,
°C
ветер,
м/с
пор.,
м/с
влажн.,
%
обл.,
%
осадки,
мм/ч
давл.,
гПа
погр.,
м
31 июля, сб
сб3123:00+25зсз71032100 0.0 1010465
02:00+25зсз71032100 0.0 1010628
05:00+24з6934100 0.0 1010363
08:00+23сз48348 0.0 1011186
11:00+28св332433 0.0 10112125
14:00+30ююв2420100 0.0 10103155
17:00+32ююз3516100 0.0 10083508
20:00+33зсз34125 0.0 10073860
1 августа, вс
вс123:00+30сз913144 0.0 1009359
02:00+27с69280 0.0 1009130
05:00+25с610280 0.0 1009181
08:00+22всв35480 0.0 1010157
11:00+27всв22280 0.0 1010664
14:00+31юв23130 0.0 10071938
17:00+34ююв4490 0.0 10052408
20:00+34ю5490 0.0 10041738
2 августа, пн
пн223:00+31ююв34110 0.0 100525
02:00+28зюз22130 0.0 100411
05:00+26ююз22150 0.0 100411
08:00+26ссв22150 0.0 100512
11:00+31всв33110 0.0 1006640
14:00+34юв1190 0.0 10041658
17:00+36юв1180 0.0 10032420
20:00+37ююв328100 0.0 10021829
3 августа, вт
вт323:00+33юв3310100 0.0 100213
02:00+30ю1113100 0.0 100311
05:00+29ююз2214100 0.0 100311
08:00+29всв2213100 0.0 100411
11:00+33в3312100 0.0 1004541
14:00+36ююв2210100 0.0 10041391
17:00+37зюз339100 0.0 10034231
20:00+37с341089 0.0 10033904
4 августа, ср
ср423:00+33сз231555 0.0 100313
02:00+30с452427 0.0 100454
05:00+27вюв11267 0.0 100411
08:00+28в3327100 0.0 100538
11:00+31всв432354 0.0 1006746
14:00+36ссз791487 0.0 10043920
17:00+36зюз561578 0.0 10023186
20:00+37сз991158 0.0 10012502